Time,TemperatureF,DewpointF,PressureIn,WindDirection,WindDirectionDegrees,WindSpeedMPH,WindSpeedGustMPH,Humidity,HourlyPrecipIn,Conditions,Clouds,dailyrainin,SoftwareType,DateUTC
2013-04-06 00:00:00,28.1,17.8,29.93,NW,321,3.0,3.0,65,0.00,,,0.00,Wunderground v.1.15,2013-04-06 04:00:00,
2013-04-06 00:10:00,27.8,17.2,29.93,West,272,4.0,4.0,64,0.00,,,0.00,Wunderground v.1.15,2013-04-06 04:10:00,
2013-04-06 00:25:00,27.8,17.2,29.93,WNW,300,2.0,5.0,64,0.00,,,0.00,Wunderground v.1.15,2013-04-06 04:25:00,
2013-04-06 00:40:00,27.5,18.3,29.95,NNW,341,2.0,2.0,68,0.00,,,0.00,Wunderground v.1.15,2013-04-06 04:40:00,
2013-04-06 00:50:00,26.7,19.8,29.95,NNW,345,3.0,3.0,75,0.00,,,0.00,Wunderground v.1.15,2013-04-06 04:50:00,
2013-04-06 00:55:00,26.2,20.0,29.95,NNW,329,3.0,5.0,77,0.00,,,0.00,Wunderground v.1.15,2013-04-06 04:55:00,
2013-04-06 01:00:00,25.9,20.0,29.95,NNW,331,4.0,4.0,78,0.00,,,0.00,Wunderground v.1.15,2013-04-06 05:00:00,
2013-04-06 01:05:00,25.8,20.2,29.95,NW,308,3.0,4.0,79,0.00,,,0.00,Wunderground v.1.15,2013-04-06 05:05:00,
2013-04-06 01:10:00,25.8,19.9,29.95,WNW,298,2.0,2.0,78,0.00,,,0.00,Wunderground v.1.15,2013-04-06 05:10:00,
2013-04-06 01:15:00,25.8,19.3,29.95,West,269,2.0,3.0,76,0.00,,,0.00,Wunderground v.1.15,2013-04-06 05:15:00,
2013-04-06 01:20:00,25.7,19.2,29.96,NNW,331,4.0,4.0,76,0.00,,,0.00,Wunderground v.1.15,2013-04-06 05:20:00,
2013-04-06 01:25:00,25.6,19.4,29.96,NNW,340,4.0,4.0,77,0.00,,,0.00,Wunderground v.1.15,2013-04-06 05:25:00,
2013-04-06 01:30:00,25.5,19.6,29.96,NNW,342,3.0,6.0,78,0.00,,,0.00,Wunderground v.1.15,2013-04-06 05:30:00,
2013-04-06 01:35:00,25.2,19.3,29.96,NW,318,3.0,9.0,78,0.00,,,0.00,Wunderground v.1.15,2013-04-06 05:35:00,
2013-04-06 01:40:00,24.9,19.3,29.96,WNW,285,4.0,9.0,79,0.00,,,0.00,Wunderground v.1.15,2013-04-06 05:40:00,
2013-04-06 01:50:00,24.6,19.6,29.97,NW,323,3.0,3.0,81,0.00,,,0.00,Wunderground v.1.15,2013-04-06 05:50:00,
2013-04-06 01:55:00,24.1,19.4,29.97,West,269,4.0,4.0,82,0.00,,,0.00,Wunderground v.1.15,2013-04-06 05:55:00,
2013-04-06 02:00:00,23.8,19.1,29.97,WNW,291,3.0,4.0,82,0.00,,,0.00,Wunderground v.1.15,2013-04-06 06:00:00,
2013-04-06 02:10:00,23.5,18.8,29.98,West,278,3.0,4.0,82,0.00,,,0.00,Wunderground v.1.15,2013-04-06 06:10:00,
2013-04-06 02:15:00,23.4,18.4,29.98,SSW,207,4.0,4.0,81,0.00,,,0.00,Wunderground v.1.15,2013-04-06 06:15:00,
2013-04-06 02:25:00,23.4,18.7,29.98,WNW,302,3.0,5.0,82,0.00,,,0.00,Wunderground v.1.15,2013-04-06 06:25:00,
2013-04-06 02:30:00,23.0,18.6,29.99,WNW,296,3.0,6.0,83,0.00,,,0.00,Wunderground v.1.15,2013-04-06 06:30:00,
2013-04-06 02:35:00,22.6,18.8,29.99,NW,323,4.0,6.0,85,0.00,,,0.00,Wunderground v.1.15,2013-04-06 06:35:00,
2013-04-06 02:40:00,22.2,18.7,29.99,WSW,244,3.0,3.0,86,0.00,,,0.00,Wunderground v.1.15,2013-04-06 06:40:00,
2013-04-06 02:50:00,21.7,18.2,29.99,SW,225,2.0,2.0,86,0.00,,,0.00,Wunderground v.1.15,2013-04-06 06:50:00,
2013-04-06 03:10:00,21.0,13.1,30.00,West,264,5.0,5.0,71,0.00,,,0.00,Wunderground v.1.15,2013-04-06 07:10:00,
2013-04-06 03:20:00,20.9,11.3,30.00,West,267,4.0,4.0,66,0.00,,,0.00,Wunderground v.1.15,2013-04-06 07:20:00,
2013-04-06 03:25:00,21.0,10.7,30.01,West,260,5.0,14.0,64,0.00,,,0.00,Wunderground v.1.15,2013-04-06 07:25:00,
2013-04-06 03:30:00,21.0,10.4,30.01,SW,231,6.0,9.0,63,0.00,,,0.00,Wunderground v.1.15,2013-04-06 07:30:00,
2013-04-06 03:35:00,21.0,9.6,30.01,WNW,297,6.0,9.0,61,0.00,,,0.00,Wunderground v.1.15,2013-04-06 07:35:00,
2013-04-06 03:45:00,21.0,8.9,30.02,South,186,5.0,6.0,59,0.00,,,0.00,Wunderground v.1.15,2013-04-06 07:45:00,
2013-04-06 03:50:00,20.9,8.4,30.03,WSW,253,4.0,4.0,58,0.00,,,0.00,Wunderground v.1.15,2013-04-06 07:50:00,
2013-04-06 03:55:00,20.8,8.7,30.03,SSW,198,3.0,7.0,59,0.00,,,0.00,Wunderground v.1.15,2013-04-06 07:55:00,
2013-04-06 04:00:00,20.7,8.6,30.04,SW,234,3.0,3.0,59,0.00,,,0.00,Wunderground v.1.15,2013-04-06 08:00:00,
2013-04-06 04:10:00,20.3,8.2,30.05,SW,234,3.0,4.0,59,0.00,,,0.00,Wunderground v.1.15,2013-04-06 08:10:00,
2013-04-06 04:15:00,20.2,8.1,30.05,WSW,254,3.0,4.0,59,0.00,,,0.00,Wunderground v.1.15,2013-04-06 08:15:00,
2013-04-06 04:20:00,20.0,8.0,30.05,NW,307,3.0,3.0,59,0.00,,,0.00,Wunderground v.1.15,2013-04-06 08:20:00,
2013-04-06 04:25:00,20.0,8.0,30.05,WNW,282,4.0,4.0,59,0.00,,,0.00,Wunderground v.1.15,2013-04-06 08:25:00,
2013-04-06 04:35:00,19.8,8.1,30.06,NNW,336,2.0,4.0,60,0.00,,,0.00,Wunderground v.1.15,2013-04-06 08:35:00,
2013-04-06 04:40:00,19.8,8.1,30.07,West,264,2.0,3.0,60,0.00,,,0.00,Wunderground v.1.15,2013-04-06 08:40:00,
2013-04-06 04:45:00,19.9,8.2,30.07,ENE,67,3.0,3.0,60,0.00,,,0.00,Wunderground v.1.15,2013-04-06 08:45:00,
2013-04-06 04:50:00,20.0,8.0,30.07,West,261,4.0,4.0,59,0.00,,,0.00,Wunderground v.1.15,2013-04-06 08:50:00,
2013-04-06 04:55:00,20.0,8.0,30.07,SW,221,5.0,5.0,59,0.00,,,0.00,Wunderground v.1.15,2013-04-06 08:55:00,
2013-04-06 05:05:00,19.9,7.9,30.08,WSW,237,5.0,9.0,59,0.00,,,0.00,Wunderground v.1.15,2013-04-06 09:05:00,
2013-04-06 05:10:00,19.8,8.5,30.08,SW,234,5.0,7.0,61,0.00,,,0.00,Wunderground v.1.15,2013-04-06 09:10:00,
2013-04-06 05:15:00,19.8,8.9,30.08,NW,308,5.0,9.0,62,0.00,,,0.00,Wunderground v.1.15,2013-04-06 09:15:00,
2013-04-06 05:20:00,19.7,9.1,30.08,WSW,242,5.0,5.0,63,0.00,,,0.00,Wunderground v.1.15,2013-04-06 09:20:00,
2013-04-06 05:25:00,19.8,8.9,30.08,NNW,328,5.0,8.0,62,0.00,,,0.00,Wunderground v.1.15,2013-04-06 09:25:00,
2013-04-06 05:30:00,19.8,8.9,30.09,NW,320,5.0,5.0,62,0.00,,,0.00,Wunderground v.1.15,2013-04-06 09:30:00,
2013-04-06 05:35:00,19.7,7.3,30.09,WSW,244,5.0,9.0,58,0.00,,,0.00,Wunderground v.1.15,2013-04-06 09:35:00,
2013-04-06 05:40:00,19.6,7.2,30.09,NNE,15,6.0,6.0,58,0.00,,,0.00,Wunderground v.1.15,2013-04-06 09:40:00,
2013-04-06 05:45:00,19.5,7.1,30.09,SW,217,5.0,7.0,58,0.00,,,0.00,Wunderground v.1.15,2013-04-06 09:45:00,
2013-04-06 05:55:00,19.4,6.2,30.10,NE,55,6.0,8.0,56,0.00,,,0.00,Wunderground v.1.15,2013-04-06 09:55:00,
2013-04-06 06:05:00,19.1,6.3,30.12,West,281,5.0,14.0,57,0.00,,,0.00,Wunderground v.1.15,2013-04-06 10:05:00,
2013-04-06 06:10:00,19.0,6.3,30.12,West,278,6.0,8.0,57,0.00,,,0.00,Wunderground v.1.15,2013-04-06 10:10:00,
2013-04-06 06:15:00,19.0,5.9,30.13,West,263,6.0,8.0,56,0.00,,,0.00,Wunderground v.1.15,2013-04-06 10:15:00,
2013-04-06 06:20:00,18.9,5.8,30.13,SW,220,5.0,5.0,56,0.00,,,0.00,Wunderground v.1.15,2013-04-06 10:20:00,
2013-04-06 06:25:00,18.8,5.3,30.14,West,273,5.0,12.0,55,0.00,,,0.00,Wunderground v.1.15,2013-04-06 10:25:00,
2013-04-06 06:35:00,18.7,4.0,30.15,WSW,253,6.0,6.0,52,0.00,,,0.00,Wunderground v.1.15,2013-04-06 10:35:00,
2013-04-06 06:40:00,18.6,3.9,30.15,West,268,6.0,6.0,52,0.00,,,0.00,Wunderground v.1.15,2013-04-06 10:40:00,
2013-04-06 06:45:00,18.6,3.9,30.15,SW,221,5.0,6.0,52,0.00,,,0.00,Wunderground v.1.15,2013-04-06 10:45:00,
2013-04-06 06:50:00,18.5,3.4,30.15,West,277,5.0,9.0,51,0.00,,,0.00,Wunderground v.1.15,2013-04-06 10:50:00,
2013-04-06 06:55:00,18.4,3.3,30.15,WSW,254,6.0,11.0,51,0.00,,,0.00,Wunderground v.1.15,2013-04-06 10:55:00,
2013-04-06 07:00:00,18.3,3.6,30.16,WSW,240,7.0,9.0,52,0.00,,,0.00,Wunderground v.1.15,2013-04-06 11:00:00,
2013-04-06 07:10:00,18.3,3.6,30.17,SW,223,5.0,11.0,52,0.00,,,0.00,Wunderground v.1.15,2013-04-06 11:10:00,
2013-04-06 07:15:00,18.4,3.7,30.17,WNW,284,6.0,11.0,52,0.00,,,0.00,Wunderground v.1.15,2013-04-06 11:15:00,
2013-04-06 07:20:00,18.6,3.9,30.17,West,275,7.0,7.0,52,0.00,,,0.00,Wunderground v.1.15,2013-04-06 11:20:00,
2013-04-06 07:25:00,18.7,4.0,30.18,SW,229,7.0,7.0,52,0.00,,,0.00,Wunderground v.1.15,2013-04-06 11:25:00,
2013-04-06 07:30:00,18.8,4.1,30.18,West,260,6.0,6.0,52,0.00,,,0.00,Wunderground v.1.15,2013-04-06 11:30:00,
2013-04-06 07:35:00,19.0,3.8,30.18,WNW,294,4.0,8.0,51,0.00,,,0.00,Wunderground v.1.15,2013-04-06 11:35:00,
2013-04-06 07:40:00,19.3,4.1,30.19,WSW,254,4.0,7.0,51,0.00,,,0.00,Wunderground v.1.15,2013-04-06 11:40:00,
2013-04-06 07:45:00,19.4,3.8,30.19,West,274,5.0,7.0,50,0.00,,,0.00,Wunderground v.1.15,2013-04-06 11:45:00,
2013-04-06 07:50:00,19.5,3.4,30.19,WSW,255,6.0,7.0,49,0.00,,,0.00,Wunderground v.1.15,2013-04-06 11:50:00,
2013-04-06 08:00:00,20.0,3.9,30.19,NW,309,4.0,5.0,49,0.00,,,0.00,Wunderground v.1.15,2013-04-06 12:00:00,
2013-04-06 08:10:00,20.3,4.6,30.20,West,271,4.0,8.0,50,0.00,,,0.00,Wunderground v.1.15,2013-04-06 12:10:00,
2013-04-06 08:15:00,20.5,5.2,30.20,NNW,329,4.0,8.0,51,0.00,,,0.00,Wunderground v.1.15,2013-04-06 12:15:00,
2013-04-06 08:20:00,20.8,5.5,30.20,NW,317,4.0,6.0,51,0.00,,,0.00,Wunderground v.1.15,2013-04-06 12:20:00,
2013-04-06 08:25:00,20.9,5.2,30.20,WSW,253,5.0,6.0,50,0.00,,,0.00,Wunderground v.1.15,2013-04-06 12:25:00,
2013-04-06 08:30:00,20.6,4.9,30.20,WNW,302,6.0,6.0,50,0.00,,,0.00,Wunderground v.1.15,2013-04-06 12:30:00,
2013-04-06 08:35:00,20.5,5.2,30.20,WNW,302,7.0,7.0,51,0.00,,,0.00,Wunderground v.1.15,2013-04-06 12:35:00,
2013-04-06 08:40:00,20.8,5.1,30.20,North,350,6.0,6.0,50,0.00,,,0.00,Wunderground v.1.15,2013-04-06 12:40:00,
2013-04-06 08:50:00,21.1,4.9,30.20,WNW,301,6.0,9.0,49,0.00,,,0.00,Wunderground v.1.15,2013-04-06 12:50:00,
2013-04-06 08:55:00,21.1,4.9,30.21,NW,325,6.0,9.0,49,0.00,,,0.00,Wunderground v.1.15,2013-04-06 12:55:00,
2013-04-06 09:05:00,20.7,4.1,30.20,West,263,7.0,7.0,48,0.00,,,0.00,Wunderground v.1.15,2013-04-06 13:05:00,
2013-04-06 09:10:00,21.1,5.3,30.21,WSW,255,6.0,7.0,50,0.00,,,0.00,Wunderground v.1.15,2013-04-06 13:10:00,
2013-04-06 09:20:00,21.4,5.2,30.21,North,355,6.0,13.0,49,0.00,,,0.00,Wunderground v.1.15,2013-04-06 13:20:00,
2013-04-06 09:25:00,21.6,5.8,30.21,SW,221,5.0,5.0,50,0.00,,,0.00,Wunderground v.1.15,2013-04-06 13:25:00,
2013-04-06 09:30:00,22.0,5.7,30.21,NW,314,5.0,5.0,49,0.00,,,0.00,Wunderground v.1.15,2013-04-06 13:30:00,
2013-04-06 09:45:00,22.5,6.2,30.22,NNW,346,5.0,5.0,49,0.00,,,0.00,Wunderground v.1.15,2013-04-06 13:45:00,
2013-04-06 09:50:00,22.6,6.3,30.21,NNW,333,6.0,6.0,49,0.00,,,0.00,Wunderground v.1.15,2013-04-06 13:50:00,
2013-04-06 09:55:00,22.6,5.8,30.22,WNW,292,7.0,10.0,48,0.00,,,0.00,Wunderground v.1.15,2013-04-06 13:55:00,
2013-04-06 10:05:00,23.1,6.7,30.22,West,279,5.0,9.0,49,0.00,,,0.00,Wunderground v.1.15,2013-04-06 14:05:00,
2013-04-06 10:10:00,23.0,7.1,30.22,NW,309,6.0,8.0,50,0.00,,,0.00,Wunderground v.1.15,2013-04-06 14:10:00,
2013-04-06 10:15:00,23.3,6.5,30.22,NW,311,6.0,8.0,48,0.00,,,0.00,Wunderground v.1.15,2013-04-06 14:15:00,
2013-04-06 10:20:00,23.6,6.8,30.23,NNW,340,5.0,6.0,48,0.00,,,0.00,Wunderground v.1.15,2013-04-06 14:20:00,
2013-04-06 10:30:00,23.5,5.7,30.23,WNW,288,6.0,6.0,46,0.00,,,0.00,Wunderground v.1.15,2013-04-06 14:30:00,
2013-04-06 10:35:00,23.8,6.5,30.24,WNW,282,6.0,7.0,47,0.00,,,0.00,Wunderground v.1.15,2013-04-06 14:35:00,
2013-04-06 10:50:00,24.7,6.8,30.24,NNW,340,6.0,6.0,46,0.00,,,0.00,Wunderground v.1.15,2013-04-06 14:50:00,
2013-04-06 10:55:00,24.9,6.5,30.24,North,355,5.0,8.0,45,0.00,,,0.00,Wunderground v.1.15,2013-04-06 14:55:00,
2013-04-06 11:00:00,25.1,6.7,30.24,NNW,338,6.0,7.0,45,0.00,,,0.00,Wunderground v.1.15,2013-04-06 15:00:00,
2013-04-06 11:05:00,25.4,7.0,30.24,West,281,6.0,7.0,45,0.00,,,0.00,Wunderground v.1.15,2013-04-06 15:05:00,
2013-04-06 11:10:00,25.4,6.5,30.24,SSW,200,6.0,6.0,44,0.00,,,0.00,Wunderground v.1.15,2013-04-06 15:10:00,
2013-04-06 11:15:00,26.0,8.0,30.25,NW,324,5.0,9.0,46,0.00,,,0.00,Wunderground v.1.15,2013-04-06 15:15:00,
2013-04-06 11:20:00,26.2,6.7,30.24,SW,217,5.0,5.0,43,0.00,,,0.00,Wunderground v.1.15,2013-04-06 15:20:00,
2013-04-06 11:30:00,26.3,6.3,30.25,SW,232,6.0,6.0,42,0.00,,,0.00,Wunderground v.1.15,2013-04-06 15:30:00,
2013-04-06 11:35:00,26.0,6.0,30.25,SW,236,6.0,6.0,42,0.00,,,0.00,Wunderground v.1.15,2013-04-06 15:35:00,
2013-04-06 11:40:00,26.4,6.9,30.25,North,355,6.0,8.0,43,0.00,,,0.00,Wunderground v.1.15,2013-04-06 15:40:00,
2013-04-06 11:45:00,26.6,6.6,30.25,SW,234,5.0,8.0,42,0.00,,,0.00,Wunderground v.1.15,2013-04-06 15:45:00,
2013-04-06 11:50:00,27.0,6.4,30.25,North,11,5.0,5.0,41,0.00,,,0.00,Wunderground v.1.15,2013-04-06 15:50:00,
2013-04-06 11:55:00,27.2,6.6,30.25,West,277,5.0,5.0,41,0.00,,,0.00,Wunderground v.1.15,2013-04-06 15:55:00,
2013-04-06 12:00:00,27.1,4.8,30.25,NW,320,6.0,6.0,38,0.00,,,0.00,Wunderground v.1.15,2013-04-06 16:00:00,
2013-04-06 12:05:00,27.2,5.5,30.25,NW,314,6.0,8.0,39,0.00,,,0.00,Wunderground v.1.15,2013-04-06 16:05:00,
2013-04-06 12:15:00,27.4,6.8,30.25,SSW,198,5.0,5.0,41,0.00,,,0.00,Wunderground v.1.15,2013-04-06 16:15:00,
2013-04-06 12:20:00,27.5,5.7,30.25,West,264,5.0,8.0,39,0.00,,,0.00,Wunderground v.1.15,2013-04-06 16:20:00,
2013-04-06 12:25:00,27.8,6.0,30.26,West,277,5.0,8.0,39,0.00,,,0.00,Wunderground v.1.15,2013-04-06 16:25:00,
2013-04-06 12:30:00,28.1,7.4,30.25,NW,325,5.0,5.0,41,0.00,,,0.00,Wunderground v.1.15,2013-04-06 16:30:00,
2013-04-06 12:35:00,28.7,8.5,30.25,North,351,4.0,5.0,42,0.00,,,0.00,Wunderground v.1.15,2013-04-06 16:35:00,
2013-04-06 12:40:00,29.2,7.3,30.26,North,355,4.0,4.0,39,0.00,,,0.00,Wunderground v.1.15,2013-04-06 16:40:00,
2013-04-06 12:45:00,28.8,6.3,30.26,West,266,4.0,4.0,38,0.00,,,0.00,Wunderground v.1.15,2013-04-06 16:45:00,
2013-04-06 12:50:00,28.8,6.9,30.25,WSW,247,5.0,5.0,39,0.00,,,0.00,Wunderground v.1.15,2013-04-06 16:50:00,
2013-04-06 12:55:00,28.6,6.7,30.25,West,265,5.0,7.0,39,0.00,,,0.00,Wunderground v.1.15,2013-04-06 16:55:00,
2013-04-06 13:00:00,28.6,6.7,30.25,North,355,5.0,6.0,39,0.00,,,0.00,Wunderground v.1.15,2013-04-06 17:00:00,
2013-04-06 13:05:00,28.8,7.5,30.26,South,170,5.0,6.0,40,0.00,,,0.00,Wunderground v.1.15,2013-04-06 17:05:00,
2013-04-06 13:10:00,29.3,7.4,30.26,WSW,244,6.0,12.0,39,0.00,,,0.00,Wunderground v.1.15,2013-04-06 17:10:00,
2013-04-06 13:15:00,29.4,6.9,30.26,North,11,6.0,12.0,38,0.00,,,0.00,Wunderground v.1.15,2013-04-06 17:15:00,
2013-04-06 13:20:00,29.4,6.9,30.26,NNW,337,6.0,6.0,38,0.00,,,0.00,Wunderground v.1.15,2013-04-06 17:20:00,
2013-04-06 13:30:00,29.0,5.3,30.26,WSW,250,6.0,12.0,36,0.00,,,0.00,Wunderground v.1.15,2013-04-06 17:30:00,
2013-04-06 13:35:00,29.2,6.1,30.27,West,274,7.0,12.0,37,0.00,,,0.00,Wunderground v.1.15,2013-04-06 17:35:00,
2013-04-06 13:40:00,29.8,5.4,30.26,SSW,205,6.0,6.0,35,0.00,,,0.00,Wunderground v.1.15,2013-04-06 17:40:00,
2013-04-06 13:45:00,30.2,5.8,30.27,WNW,288,5.0,6.0,35,0.00,,,0.00,Wunderground v.1.15,2013-04-06 17:45:00,
2013-04-06 13:50:00,30.1,5.7,30.26,NW,321,6.0,6.0,35,0.00,,,0.00,Wunderground v.1.15,2013-04-06 17:50:00,
2013-04-06 13:55:00,30.5,7.3,30.26,SSW,210,5.0,6.0,37,0.00,,,0.00,Wunderground v.1.15,2013-04-06 17:55:00,
2013-04-06 14:00:00,30.9,8.2,30.26,WSW,252,4.0,5.0,38,0.00,,,0.00,Wunderground v.1.15,2013-04-06 18:00:00,
2013-04-06 14:05:00,31.0,5.2,30.26,WSW,255,5.0,8.0,33,0.00,,,0.00,Wunderground v.1.15,2013-04-06 18:05:00,
2013-04-06 14:10:00,30.8,5.0,30.26,NNW,347,5.0,8.0,33,0.00,,,0.00,Wunderground v.1.15,2013-04-06 18:10:00,
2013-04-06 14:15:00,30.6,5.5,30.26,North,350,5.0,11.0,34,0.00,,,0.00,Wunderground v.1.15,2013-04-06 18:15:00,
2013-04-06 14:20:00,31.0,7.1,30.26,South,190,6.0,6.0,36,0.00,,,0.00,Wunderground v.1.15,2013-04-06 18:20:00,
2013-04-06 14:25:00,31.1,6.0,30.26,NW,319,6.0,9.0,34,0.00,,,0.00,Wunderground v.1.15,2013-04-06 18:25:00,
2013-04-06 14:30:00,31.1,5.3,30.26,NNW,331,6.0,8.0,33,0.00,,,0.00,Wunderground v.1.15,2013-04-06 18:30:00,
2013-04-06 14:35:00,31.1,6.6,30.26,NW,315,6.0,8.0,35,0.00,,,0.00,Wunderground v.1.15,2013-04-06 18:35:00,
2013-04-06 14:40:00,31.8,7.2,30.26,South,181,4.0,4.0,35,0.00,,,0.00,Wunderground v.1.15,2013-04-06 18:40:00,
2013-04-06 14:45:00,31.7,4.5,30.26,NW,325,4.0,4.0,31,0.00,,,0.00,Wunderground v.1.15,2013-04-06 18:45:00,
2013-04-06 14:50:00,31.5,5.0,30.26,WSW,252,6.0,6.0,32,0.00,,,0.00,Wunderground v.1.15,2013-04-06 18:50:00,
2013-04-06 14:55:00,31.4,5.6,30.25,WSW,239,6.0,6.0,33,0.00,,,0.00,Wunderground v.1.15,2013-04-06 18:55:00,
2013-04-06 15:00:00,31.8,5.2,30.25,NW,310,5.0,5.0,32,0.00,,,0.00,Wunderground v.1.15,2013-04-06 19:00:00,
2013-04-06 15:15:00,32.5,6.5,30.26,SW,214,4.0,5.0,33,0.00,,,0.00,Wunderground v.1.15,2013-04-06 19:15:00,
2013-04-06 15:34:00,33.3,7.2,30.26,North,350,3.0,4.0,33,0.00,,,0.00,Wunderground v.1.15,2013-04-06 19:34:00,
2013-04-06 15:40:00,33.3,7.2,30.26,WSW,242,4.0,5.0,33,0.00,,,0.00,Wunderground v.1.15,2013-04-06 19:40:00,
2013-04-06 15:50:00,33.3,6.6,30.26,NNW,338,5.0,5.0,32,0.00,,,0.00,Wunderground v.1.15,2013-04-06 19:50:00,
2013-04-06 16:00:00,33.9,7.8,30.25,WNW,292,3.0,3.0,33,0.00,,,0.00,Wunderground v.1.15,2013-04-06 20:00:00,
2013-04-06 16:10:00,33.7,5.5,30.26,NW,314,5.0,5.0,30,0.00,,,0.00,Wunderground v.1.15,2013-04-06 20:10:00,
2013-04-06 16:15:00,33.5,6.0,30.26,WSW,245,5.0,6.0,31,0.00,,,0.00,Wunderground v.1.15,2013-04-06 20:15:00,
2013-04-06 16:20:00,33.3,5.1,30.25,WSW,254,5.0,5.0,30,0.00,,,0.00,Wunderground v.1.15,2013-04-06 20:20:00,
2013-04-06 16:25:00,33.6,7.5,30.25,NW,311,3.0,5.0,33,0.00,,,0.00,Wunderground v.1.15,2013-04-06 20:25:00,
2013-04-06 16:30:00,33.9,7.8,30.25,WSW,240,3.0,3.0,33,0.00,,,0.00,Wunderground v.1.15,2013-04-06 20:30:00,
2013-04-06 16:35:00,34.3,7.4,30.25,WSW,247,4.0,5.0,32,0.00,,,0.00,Wunderground v.1.15,2013-04-06 20:35:00,
2013-04-06 16:40:00,33.8,6.3,30.25,SSW,202,5.0,6.0,31,0.00,,,0.00,Wunderground v.1.15,2013-04-06 20:40:00,
2013-04-06 16:45:00,33.7,6.9,30.26,WNW,290,5.0,6.0,32,0.00,,,0.00,Wunderground v.1.15,2013-04-06 20:45:00,
2013-04-06 16:50:00,33.9,6.4,30.26,NW,324,4.0,4.0,31,0.00,,,0.00,Wunderground v.1.15,2013-04-06 20:50:00,
2013-04-06 17:00:00,34.3,6.0,30.26,WNW,288,4.0,5.0,30,0.00,,,0.00,Wunderground v.1.15,2013-04-06 21:00:00,
2013-04-06 17:05:00,34.3,6.7,30.27,West,270,3.0,5.0,31,0.00,,,0.00,Wunderground v.1.15,2013-04-06 21:05:00,
2013-04-06 17:10:00,34.4,6.8,30.26,WSW,244,2.0,9.0,31,0.00,,,0.00,Wunderground v.1.15,2013-04-06 21:10:00,
2013-04-06 17:20:00,34.4,6.1,30.27,WSW,257,3.0,3.0,30,0.00,,,0.00,Wunderground v.1.15,2013-04-06 21:20:00,
2013-04-06 17:30:00,34.2,4.4,30.28,WSW,255,4.0,4.0,28,0.00,,,0.00,Wunderground v.1.15,2013-04-06 21:30:00,
2013-04-06 17:35:00,34.3,5.3,30.28,North,11,3.0,5.0,29,0.00,,,0.00,Wunderground v.1.15,2013-04-06 21:35:00,
2013-04-06 17:40:00,34.3,6.7,30.28,SE,125,3.0,3.0,31,0.00,,,0.00,Wunderground v.1.15,2013-04-06 21:40:00,
2013-04-06 17:45:00,34.0,5.0,30.28,SSW,209,3.0,5.0,29,0.00,,,0.00,Wunderground v.1.15,2013-04-06 21:45:00,
2013-04-06 17:50:00,33.8,7.7,30.29,WSW,258,4.0,4.0,33,0.00,,,0.00,Wunderground v.1.15,2013-04-06 21:50:00,
2013-04-06 17:55:00,33.9,5.7,30.29,WSW,252,3.0,4.0,30,0.00,,,0.00,Wunderground v.1.15,2013-04-06 21:55:00,
2013-04-06 18:00:00,34.0,6.5,30.29,NE,51,3.0,3.0,31,0.00,,,0.00,Wunderground v.1.15,2013-04-06 22:00:00,
2013-04-06 18:05:00,33.7,5.5,30.29,SW,234,3.0,4.0,30,0.00,,,0.00,Wunderground v.1.15,2013-04-06 22:05:00,
2013-04-06 18:10:00,33.3,5.9,30.29,WSW,241,4.0,4.0,31,0.00,,,0.00,Wunderground v.1.15,2013-04-06 22:10:00,
2013-04-06 18:15:00,33.2,5.8,30.29,WSW,250,4.0,4.0,31,0.00,,,0.00,Wunderground v.1.15,2013-04-06 22:15:00,
2013-04-06 18:20:00,33.0,6.3,30.29,SSW,210,3.0,3.0,32,0.00,,,0.00,Wunderground v.1.15,2013-04-06 22:20:00,
2013-04-06 18:25:00,32.7,6.0,30.29,WSW,252,3.0,3.0,32,0.00,,,0.00,Wunderground v.1.15,2013-04-06 22:25:00,
2013-04-06 18:30:00,32.7,5.3,30.29,WSW,238,2.0,2.0,31,0.00,,,0.00,Wunderground v.1.15,2013-04-06 22:30:00,
2013-04-06 18:35:00,32.6,5.3,30.30,WSW,255,2.0,3.0,31,0.00,,,0.00,Wunderground v.1.15,2013-04-06 22:35:00,
2013-04-06 18:40:00,32.5,6.5,30.30,SW,214,2.0,2.0,33,0.00,,,0.00,Wunderground v.1.15,2013-04-06 22:40:00,
2013-04-06 18:45:00,32.4,6.4,30.30,WSW,248,3.0,3.0,33,0.00,,,0.00,Wunderground v.1.15,2013-04-06 22:45:00,
2013-04-06 18:50:00,32.5,6.5,30.30,WSW,249,3.0,3.0,33,0.00,,,0.00,Wunderground v.1.15,2013-04-06 22:50:00,
2013-04-06 18:55:00,32.5,8.5,30.30,WSW,249,2.0,3.0,36,0.00,,,0.00,Wunderground v.1.15,2013-04-06 22:55:00,
2013-04-06 19:00:00,32.3,8.3,30.30,WSW,249,1.0,1.0,36,0.00,,,0.00,Wunderground v.1.15,2013-04-06 23:00:00,
2013-04-06 19:05:00,32.0,6.8,30.30,WSW,249,1.0,1.0,34,0.00,,,0.00,Wunderground v.1.15,2013-04-06 23:05:00,
2013-04-06 19:10:00,31.6,8.3,30.30,WSW,242,1.0,1.0,37,0.00,,,0.00,Wunderground v.1.15,2013-04-06 23:10:00,
2013-04-06 19:15:00,31.0,8.9,30.30,WSW,242,0.0,1.0,39,0.00,,,0.00,Wunderground v.1.15,2013-04-06 23:15:00,
2013-04-06 19:20:00,30.5,9.0,30.30,WSW,242,0.0,0.0,40,0.00,,,0.00,Wunderground v.1.15,2013-04-06 23:20:00,
2013-04-06 19:25:00,30.2,9.8,30.30,WSW,242,0.0,0.0,42,0.00,,,0.00,Wunderground v.1.15,2013-04-06 23:25:00,
2013-04-06 22:35:00,22.3,13.3,30.34,WSW,242,0.0,0.0,68,0.00,,,0.00,Wunderground v.1.15,2013-04-07 02:35:00,
2013-04-06 22:50:00,22.7,14.7,30.34,WSW,242,0.0,0.0,71,0.00,,,0.00,Wunderground v.1.15,2013-04-07 02:50:00,
2013-04-06 23:00:00,23.1,14.8,30.34,WSW,242,0.0,0.0,70,0.00,,,0.00,Wunderground v.1.15,2013-04-07 03:00:00,
2013-04-06 23:05:00,23.4,15.4,30.34,WSW,242,0.0,0.0,71,0.00,,,0.00,Wunderground v.1.15,2013-04-07 03:05:00,
2013-04-06 23:10:00,23.7,14.3,30.34,WSW,242,0.0,0.0,67,0.00,,,0.00,Wunderground v.1.15,2013-04-07 03:10:00,
2013-04-06 23:15:00,24.0,15.0,30.34,WSW,242,1.0,1.0,68,0.00,,,0.00,Wunderground v.1.15,2013-04-07 03:15:00,
2013-04-06 23:20:00,24.2,15.8,30.34,WSW,242,0.0,0.0,70,0.00,,,0.00,Wunderground v.1.15,2013-04-07 03:20:00,
2013-04-06 23:25:00,24.4,16.7,30.34,WSW,242,0.0,0.0,72,0.00,,,0.00,Wunderground v.1.15,2013-04-07 03:25:00,
2013-04-06 23:30:00,24.5,16.4,30.34,WSW,242,0.0,0.0,71,0.00,,,0.00,Wunderground v.1.15,2013-04-07 03:30:00,
2013-04-06 23:35:00,24.4,15.7,30.34,WSW,242,0.0,0.0,69,0.00,,,0.00,Wunderground v.1.15,2013-04-07 03:35:00,
2013-04-06 23:40:00,24.3,15.6,30.34,WSW,242,0.0,0.0,69,0.00,,,0.00,Wunderground v.1.15,2013-04-07 03:40:00,
2013-04-06 23:45:00,24.2,15.5,30.33,WSW,242,0.0,0.0,69,0.00,,,0.00,Wunderground v.1.15,2013-04-07 03:45:00,
2013-04-06 23:55:00,24.2,16.1,30.33,WSW,242,0.0,0.0,71,0.00,,,0.00,Wunderground v.1.15,2013-04-07 03:55:00,